Home > Weather > Löhne > Past weeks

Flag for Germany Past Weather in Löhne, North Rhine-Westphalia, Germany — Yesterday and Last 2 Weeks

Now
61 °F

Passing clouds.


Feels Like: 61 °F
Forecast: 62 / 73 °F
Wind: 2 mph from Northeast

Location: Bueckeburg

Current Time: Jul 27, 2016 at 5:49:48 AM

Latest Report: Jul 27, 2016 at 5:20 AM


Visibility: N/A

Pressure: 30.04 "Hg

Humidity: 94%

Dew Point: 59 °F

Location of LöhneLocation

Past Weather in Löhne — Graph

°F

Löhne Temperature Yesterday

Maximum temperature yesterday: 79 °F (at 4:20 PM)
Minimum temperature yesterday: 64 °F (at 5:20 AM)
Average temperature yesterday: 70 °F

High & Low Weather Summary for the Past Weeks

 TemperatureHumidityPressure
High90 °F (Jul 20, 3:20 PM)100% (Jul 17, 3:20 AM)30.24 "Hg (Jul 17, 3:20 AM)
Low54 °F (Jul 14, 6:20 AM)28% (Jul 17, 4:20 PM)29.83 "Hg (Jul 12, 4:20 AM)
Average69 °F70%30.06 "Hg
* Reported Jul 12 4:20 AM — Jul 27 4:20 AM, Löhne, Weather by CustomWeather, © 2016

Note: Actual official high and low records may vary slightly from our data, if they occured in-between our weather recording intervals... More about our weather records

Advertising

Löhne Weather History for the Previous 24 Hours

Scroll right to see more
 ConditionsComfort  
Time TempWeatherWind HumidityBarometerVisibility
4:20 AM
Wed, Jul 27
63 °FPassing clouds.5 mph88%30.07 "HgN/A
3:20 AM63 °FPassing clouds.3 mph94%30.07 "HgN/A
2:20 AM63 °FPartly cloudy.2 mph94%30.07 "HgN/A
1:20 AM63 °FPassing clouds.2 mph94%30.09 "HgN/A
12:20 AM64 °FLight rain. Passing clouds.2 mph88%30.09 "HgN/A
11:20 PM
Tue, Jul 26
66 °FLight rain. Passing clouds.5 mph83%30.09 "HgN/A
10:20 PM66 °FLight rain. Partly sunny.9 mph78%30.09 "HgN/A
9:20 PM72 °FLight rain. Partly sunny.5 mph57%30.09 "HgN/A
8:20 PM73 °FLight rain. Partly sunny.6 mph47%30.09 "HgN/A
7:20 PM75 °FBroken clouds.3 mph41%30.09 "HgN/A
6:20 PM77 °FPartly sunny.5 mph39%30.09 "HgN/A
5:20 PM79 °FScattered clouds.8 mph37%30.09 "HgN/A
4:20 PM79 °FScattered clouds.6 mph37%30.09 "HgN/A
3:20 PM77 °FScattered clouds.7 mph42%30.09 "HgN/A
2:20 PM75 °FScattered clouds.6 mph47%30.12 "HgN/A
1:20 PM73 °FScattered clouds.6 mph50%30.12 "HgN/A
11:20 AM70 °FBroken clouds.6 mph64%30.15 "HgN/A
10:20 AM68 °FBroken clouds.3 mph73%30.15 "HgN/A
9:20 AM66 °FBroken clouds.5 mph83%30.12 "HgN/A
8:20 AM64 °FPartly sunny.3 mph88%30.12 "HgN/A
7:20 AM64 °FBroken clouds.5 mph88%30.12 "HgN/A
6:20 AM64 °FSprinkles. Partly cloudy.7 mph88%30.09 "Hg6 mi
5:20 AM64 °FPassing clouds.1 mph94%30.09 "Hg6 mi
Weather by CustomWeather, © 2016

See weather overviewHow to use our weather pages